| time (UTC) | temp C | wind direction | speed KPH | gust KPH | rain 1hr cm | rain 24hr cm | rain mn cm | humidity % | barometer mb |
| 20260510130503 | 12 | 294 | 0.0 | 8.0 | 0.00 | 0.66 | 0.00 | 92 | 1012.8 |
| 20260510125503 | 12 | 288 | 0.0 | 3.2 | 0.00 | 0.66 | 0.00 | 93 | 1012.7 |
| 20260510125003 | 12 | 290 | 1.6 | 3.2 | 0.00 | 0.66 | 0.00 | 93 | 1012.5 |
| 20260510124503 | 11 | 286 | 1.6 | 4.8 | 0.00 | 0.66 | 0.00 | 93 | 1012.5 |
| 20260510124004 | 11 | 288 | 0.0 | 4.8 | 0.00 | 0.66 | 0.00 | 93 | 1012.4 |
| 20260510123503 | 11 | 183 | 0.0 | 0.0 | 0.00 | 0.66 | 0.00 | 93 | 1012.2 |
| 20260510123003 | 11 | 182 | 0.0 | 0.0 | 0.00 | 0.66 | 0.00 | 93 | 1012.2 |
| 20260510122003 | 11 | 197 | 0.0 | 1.6 | 0.00 | 0.66 | 0.00 | 94 | 1012.3 |
| 20260510121503 | 11 | 217 | 0.0 | 0.0 | 0.00 | 0.66 | 0.00 | 93 | 1012.3 |
| 20260510121004 | 11 | 217 | 0.0 | 0.0 | 0.00 | 0.66 | 0.00 | 93 | 1012.2 |
| 20260510120503 | 11 | 220 | 0.0 | 0.0 | 0.00 | 0.66 | 0.00 | 94 | 1012.2 |
| 20260510120003 | 11 | 220 | 0.0 | 0.0 | 0.00 | 0.66 | 0.00 | 94 | 1012.1 |
| 20260510115504 | 11 | 221 | 0.0 | 0.0 | 0.00 | 0.66 | 0.00 | 94 | 1012.1 |
| 20260510115003 | 10 | 221 | 0.0 | 0.0 | 0.00 | 0.66 | 0.00 | 94 | 1012.1 |
| 20260510114003 | 10 | 180 | 0.0 | 0.0 | 0.00 | 0.66 | 0.00 | 94 | 1011.8 |
| 20260510113503 | 10 | 180 | 0.0 | 0.0 | 0.00 | 0.66 | 0.00 | 94 | 1011.8 |
| 20260510113003 | 10 | 180 | 0.0 | 0.0 | 0.00 | 0.66 | 0.00 | 94 | 1011.7 |
| 20260510112504 | 10 | 180 | 0.0 | 0.0 | 0.00 | 0.66 | 0.00 | 94 | 1011.7 |
| 20260510112003 | 10 | 180 | 0.0 | 0.0 | 0.00 | 0.66 | 0.00 | 94 | 1011.6 |
| 20260510111003 | 10 | 180 | 0.0 | 0.0 | 0.00 | 0.66 | 0.00 | 94 | 1011.5 |
| 20260510110503 | 10 | 180 | 0.0 | 0.0 | 0.00 | 0.66 | 0.00 | 94 | 1011.4 |
| 20260510110002 | 10 | 180 | 0.0 | 0.0 | 0.00 | 0.66 | 0.00 | 94 | 1011.3 |
| 20260510105504 | 10 | 180 | 0.0 | 0.0 | 0.00 | 0.66 | 0.00 | 94 | 1011.2 |
| 20260510105003 | 10 | 180 | 0.0 | 1.6 | 0.00 | 0.66 | 0.00 | 94 | 1011.2 |
| 20260510104504 | 10 | 180 | 1.6 | 4.8 | 0.00 | 0.66 | 0.00 | 94 | 1011.1 |
| 20260510104003 | 10 | 166 | 1.6 | 4.8 | 0.00 | 0.66 | 0.00 | 94 | 1011.0 |
| 20260510103503 | 10 | 156 | 1.6 | 4.8 | 0.00 | 0.66 | 0.00 | 94 | 1011.0 |
| 20260510103004 | 10 | 165 | 4.8 | 8.0 | 0.00 | 0.66 | 0.00 | 94 | 1010.7 |
| 20260510102503 | 10 | 147 | 4.8 | 11.3 | 0.00 | 0.66 | 0.00 | 94 | 1010.7 |
| 20260510101503 | 10 | 150 | 3.2 | 4.8 | 0.00 | 0.66 | 0.00 | 94 | 1010.7 |
| 20260510101003 | 10 | 132 | 4.8 | 4.8 | 0.00 | 0.66 | 0.00 | 94 | 1010.7 |
| 20260510100503 | 10 | 149 | 3.2 | 8.0 | 0.00 | 0.66 | 0.00 | 94 | 1010.7 |
| 20260510100004 | 10 | 143 | 3.2 | 8.0 | 0.00 | 0.66 | 0.00 | 94 | 1010.9 |
| 20260510095503 | 10 | 148 | 4.8 | 8.0 | 0.00 | 0.66 | 0.00 | 94 | 1010.7 |
| 20260510095003 | 10 | 138 | 4.8 | 8.0 | 0.00 | 0.66 | 0.00 | 94 | 1010.6 |
| 20260510094503 | 10 | 154 | 4.8 | 9.7 | 0.00 | 0.66 | 0.00 | 94 | 1010.7 |
| 20260510093504 | 9 | 148 | 3.2 | 4.8 | 0.00 | 0.66 | 0.00 | 94 | 1010.9 |
| 20260510093003 | 9 | 138 | 3.2 | 8.0 | 0.00 | 0.66 | 0.00 | 94 | 1010.8 |
| 20260510092504 | 9 | 155 | 4.8 | 9.7 | 0.00 | 0.66 | 0.00 | 94 | 1010.7 |
| 20260510092003 | 9 | 132 | 4.8 | 4.8 | 0.00 | 0.66 | 0.00 | 94 | 1010.7 |
| 20260510090005 | 9 | 153 | 3.2 | 4.8 | 0.00 | 0.66 | 0.00 | 94 | 1010.8 |
| 20260510085504 | 9 | 155 | 1.6 | 4.8 | 0.00 | 0.66 | 0.00 | 94 | 1011.0 |
| 20260510085003 | 9 | 126 | 3.2 | 4.8 | 0.00 | 0.66 | 0.00 | 94 | 1011.1 |
| 20260510084503 | 9 | 144 | 0.0 | 0.0 | 0.00 | 0.66 | 0.00 | 94 | 1011.2 |
| 20260510084003 | 9 | 143 | 0.0 | 4.8 | 0.00 | 0.66 | 0.00 | 94 | 1011.1 |
| 20260510083003 | 9 | 119 | 0.0 | 0.0 | 0.00 | 0.66 | 0.00 | 94 | 1011.2 |
| 20260510082504 | 9 | 119 | 0.0 | 0.0 | 0.00 | 0.66 | 0.00 | 94 | 1011.4 |
| 20260510082004 | 9 | 94 | 0.0 | 0.0 | 0.00 | 0.66 | 0.00 | 94 | 1011.5 |
| 20260510081503 | 8 | 94 | 1.6 | 3.2 | 0.00 | 0.66 | 0.00 | 94 | 1011.6 |
| 20260510081003 | 8 | 94 | 3.2 | 4.8 | 0.00 | 0.66 | 0.00 | 94 | 1011.6 |
| 20260510080003 | 8 | 7 | 0.0 | 0.0 | 0.00 | 0.66 | 0.00 | 94 | 1011.6 |
| 20260510075506 | 8 | 9 | 0.0 | 0.0 | 0.00 | 0.66 | 0.00 | 94 | 1011.6 |
| 20260510075003 | 8 | 9 | 0.0 | 0.0 | 0.00 | 0.66 | 0.00 | 94 | 1011.7 |
| 20260510074503 | 8 | 9 | 0.0 | 0.0 | 0.00 | 0.66 | 0.00 | 93 | 1011.6 |
| 20260510074003 | 8 | 9 | 0.0 | 0.0 | 0.00 | 0.66 | 0.00 | 93 | 1011.6 |
| 20260510073003 | 8 | 9 | 3.2 | 4.8 | 0.00 | 0.66 | 0.00 | 93 | 1011.7 |
| 20260510072504 | 8 | 9 | 1.6 | 8.0 | 0.00 | 0.66 | 0.00 | 93 | 1011.5 |
| 20260510072004 | 8 | 5 | 6.4 | 8.0 | 0.00 | 0.66 | 0.00 | 93 | 1011.6 |
| 20260510071503 | 8 | 136 | 0.0 | 0.0 | 0.00 | 0.66 | 0.00 | 93 | 1010.8 |
| 20260510071003 | 8 | 136 | 0.0 | 0.0 | 0.00 | 0.66 | 0.00 | 93 | 1010.7 |
| 20260510070503 | 8 | 135 | 0.0 | 0.0 | 0.00 | 0.66 | 0.00 | 94 | 1010.8 |
| 20260510070004 | 8 | 135 | 0.0 | 0.0 | 0.00 | 0.66 | 0.00 | 94 | 1010.7 |
| 20260510065503 | 8 | 135 | 1.6 | 3.2 | 0.00 | 0.66 | 0.00 | 93 | 1010.9 |
| 20260510065003 | 8 | 133 | 0.0 | 0.0 | 0.00 | 0.66 | 0.00 | 93 | 1011.0 |
| 20260510064503 | 8 | 133 | 0.0 | 0.0 | 0.00 | 0.66 | 0.00 | 93 | 1010.9 |
| 20260510064003 | 8 | 133 | 0.0 | 0.0 | 0.00 | 0.66 | 0.00 | 93 | 1011.0 |
| 20260510063503 | 8 | 133 | 0.0 | 0.0 | 0.00 | 0.66 | 0.00 | 93 | 1011.0 |
| 20260510063003 | 8 | 133 | 0.0 | 0.0 | 0.00 | 0.66 | 0.00 | 93 | 1011.1 |
| 20260510062504 | 8 | 133 | 0.0 | 0.0 | 0.00 | 0.66 | 0.00 | 93 | 1011.2 |
| 20260510062003 | 8 | 133 | 0.0 | 0.0 | 0.00 | 0.66 | 0.00 | 93 | 1011.1 |
| 20260510061503 | 8 | 133 | 0.0 | 0.0 | 0.00 | 0.66 | 0.00 | 93 | 1011.0 |
| 20260510061004 | 8 | 133 | 0.0 | 0.0 | 0.00 | 0.66 | 0.00 | 93 | 1011.1 |
| 20260510060504 | 8 | 133 | 0.0 | 0.0 | 0.00 | 0.66 | 0.00 | 93 | 1011.1 |
| 20260510060003 | 8 | 133 | 0.0 | 0.0 | 0.00 | 0.66 | 0.00 | 93 | 1011.3 |
| 20260510055503 | 8 | 133 | 0.0 | 0.0 | 0.00 | 0.66 | 0.00 | 93 | 1011.2 |
| 20260510055004 | 8 | 132 | 0.0 | 0.0 | 0.00 | 0.66 | 0.00 | 93 | 1011.2 |
| 20260510054504 | 8 | 132 | 0.0 | 0.0 | 0.00 | 0.66 | 0.00 | 93 | 1011.0 |
| 20260510054003 | 8 | 132 | 0.0 | 0.0 | 0.00 | 0.66 | 0.00 | 93 | 1010.8 |
| 20260510053503 | 8 | 132 | 0.0 | 0.0 | 0.00 | 0.66 | 0.00 | 93 | 1010.6 |
| 20260510053003 | 8 | 132 | 0.0 | 0.0 | 0.00 | 0.66 | 0.00 | 93 | 1010.6 |
| 20260510052503 | 8 | 132 | 0.0 | 0.0 | 0.00 | 0.66 | 0.00 | 93 | 1010.6 |
| 20260510051503 | 8 | 132 | 0.0 | 0.0 | 0.00 | 0.66 | 0.00 | 93 | 1010.6 |
| 20260510051003 | 8 | 136 | 0.0 | 0.0 | 0.00 | 0.66 | 0.00 | 92 | 1010.6 |
| 20260510050004 | 8 | 136 | 0.0 | 0.0 | 0.00 | 0.66 | 0.00 | 93 | 1010.6 |
| 20260510045503 | 8 | 136 | 0.0 | 0.0 | 0.00 | 0.66 | 0.00 | 92 | 1010.7 |
| 20260510045003 | 8 | 136 | 0.0 | 0.0 | 0.00 | 0.66 | 0.00 | 92 | 1010.8 |
| 20260510043004 | 8 | 139 | 0.0 | 0.0 | 0.00 | 0.66 | 0.00 | 92 | 1010.8 |
| 20260510041004 | 9 | 139 | 0.0 | 0.0 | 0.00 | 0.66 | 0.00 | 92 | 1010.7 |
| 20260510040004 | 9 | 139 | 0.0 | 0.0 | 0.00 | 0.66 | 0.00 | 92 | 1010.7 |
| 20260510035004 | 9 | 139 | 1.6 | 4.8 | 0.00 | 0.66 | 0.66 | 92 | 1010.8 |
| 20260510034503 | 9 | 137 | 3.2 | 4.8 | 0.00 | 0.66 | 0.66 | 92 | 1010.8 |
| 20260510034003 | 9 | 140 | 3.2 | 4.8 | 0.00 | 0.66 | 0.66 | 92 | 1010.7 |
| 20260510033004 | 9 | 80 | 0.0 | 0.0 | 0.00 | 0.66 | 0.66 | 92 | 1010.6 |
| 20260510032503 | 9 | 80 | 0.0 | 0.0 | 0.00 | 0.66 | 0.66 | 92 | 1010.6 |
| 20260510032003 | 9 | 78 | 0.0 | 0.0 | 0.00 | 0.66 | 0.66 | 92 | 1010.6 |
| 20260510031503 | 9 | 42 | 0.0 | 0.0 | 0.00 | 0.66 | 0.66 | 92 | 1010.6 |
| 20260510031003 | 9 | 43 | 0.0 | 1.6 | 0.00 | 0.66 | 0.66 | 92 | 1010.4 |
| 20260510030504 | 9 | 42 | 0.0 | 1.6 | 0.00 | 0.66 | 0.66 | 91 | 1010.4 |
| 20260510030003 | 9 | 42 | 0.0 | 1.6 | 0.00 | 0.66 | 0.66 | 92 | 1010.3 |
| 20260510025503 | 10 | 42 | 1.6 | 4.8 | 0.00 | 0.66 | 0.66 | 91 | 1010.3 |
| 20260510025004 | 10 | 142 | 0.0 | 0.0 | 0.00 | 0.66 | 0.66 | 91 | 1010.4 |
| 20260510024503 | 10 | 142 | 0.0 | 0.0 | 0.00 | 0.66 | 0.66 | 91 | 1010.5 |
| 20260510024003 | 10 | 142 | 0.0 | 0.0 | 0.00 | 0.66 | 0.66 | 91 | 1010.5 |
| 20260510023503 | 10 | 142 | 1.6 | 3.2 | 0.00 | 0.66 | 0.66 | 91 | 1010.6 |
| 20260510023003 | 10 | 141 | 0.0 | 0.0 | 0.00 | 0.66 | 0.66 | 91 | 1010.6 |
| 20260510022504 | 10 | 138 | 1.6 | 3.2 | 0.00 | 0.66 | 0.66 | 91 | 1010.5 |
| 20260510022004 | 10 | 140 | 1.6 | 4.8 | 0.00 | 0.66 | 0.66 | 91 | 1010.5 |
| 20260510021503 | 10 | 145 | 3.2 | 4.8 | 0.00 | 0.66 | 0.66 | 91 | 1010.5 |
| 20260510020504 | 10 | 135 | 1.6 | 4.8 | 0.00 | 0.66 | 0.66 | 91 | 1010.4 |
| 20260510020005 | 10 | 142 | 1.6 | 4.8 | 0.00 | 0.66 | 0.66 | 91 | 1010.5 |
| 20260510015002 | 10 | 176 | 3.2 | 4.8 | 0.00 | 0.66 | 0.66 | 91 | 1010.4 |
| 20260510014503 | 10 | 155 | 3.2 | 8.0 | 0.00 | 0.66 | 0.66 | 91 | 1010.4 |
| 20260510014003 | 10 | 168 | 3.2 | 8.0 | 0.00 | 0.66 | 0.66 | 91 | 1010.4 |
| 20260510013503 | 10 | 159 | 1.6 | 4.8 | 0.00 | 0.66 | 0.66 | 91 | 1010.3 |
| 20260510013004 | 10 | 134 | 1.6 | 4.8 | 0.00 | 0.66 | 0.66 | 91 | 1010.4 |
| 20260510011503 | 10 | 125 | 1.6 | 4.8 | 0.00 | 0.66 | 0.66 | 91 | 1010.5 |
| 20260510011004 | 10 | 177 | 1.6 | 4.8 | 0.00 | 0.66 | 0.66 | 91 | 1010.4 |
| 20260510010502 | 10 | 138 | 1.6 | 3.2 | 0.00 | 0.66 | 0.66 | 90 | 1010.3 |
| 20260510010004 | 10 | 153 | 3.2 | 8.0 | 0.00 | 0.66 | 0.66 | 91 | 1010.1 |
| 20260510005503 | 11 | 176 | 3.2 | 4.8 | 0.00 | 0.66 | 0.66 | 90 | 1010.1 |
| 20260510005004 | 11 | 180 | 3.2 | 8.0 | 0.00 | 0.66 | 0.66 | 90 | 1010.0 |
| 20260510004504 | 11 | 149 | 3.2 | 9.7 | 0.00 | 0.66 | 0.66 | 90 | 1010.1 |
| 20260510004003 | 11 | 129 | 3.2 | 4.8 | 0.00 | 0.66 | 0.66 | 90 | 1009.9 |
| 20260510003503 | 11 | 153 | 3.2 | 8.0 | 0.00 | 0.66 | 0.66 | 90 | 1009.9 |
| 20260510003003 | 11 | 123 | 3.2 | 9.7 | 0.00 | 0.66 | 0.66 | 90 | 1009.8 |
| 20260510002503 | 11 | 125 | 3.2 | 8.0 | 0.00 | 0.66 | 0.66 | 90 | 1009.9 |
| 20260510002002 | 11 | 133 | 4.8 | 8.0 | 0.00 | 0.66 | 0.66 | 90 | 1009.9 |
| 20260510001504 | 11 | 154 | 3.2 | 8.0 | 0.00 | 0.66 | 0.66 | 90 | 1009.8 |
| 20260510001003 | 11 | 154 | 4.8 | 9.7 | 0.00 | 0.66 | 0.66 | 89 | 1009.8 |
| 20260510000504 | 11 | 145 | 3.2 | 8.0 | 0.00 | 0.66 | 0.66 | 89 | 1009.8 |
| 20260510000003 | 11 | 130 | 4.8 | 8.0 | 0.00 | 0.66 | 0.66 | 89 | 1009.7 |
| 20260509235503 | 11 | 149 | 4.8 | 9.7 | 0.00 | 0.66 | 0.66 | 89 | 1009.7 |
| 20260509235003 | 12 | 150 | 4.8 | 9.7 | 0.00 | 0.66 | 0.66 | 88 | 1009.7 |
| 20260509234503 | 12 | 149 | 3.2 | 8.0 | 0.00 | 0.66 | 0.66 | 89 | 1009.5 |
| 20260509234003 | 12 | 135 | 4.8 | 9.7 | 0.00 | 0.66 | 0.66 | 88 | 1009.4 |
| 20260509233003 | 12 | 148 | 3.2 | 8.0 | 0.00 | 0.66 | 0.66 | 88 | 1009.3 |
| 20260509232502 | 12 | 163 | 4.8 | 11.3 | 0.00 | 0.66 | 0.66 | 88 | 1009.2 |
| 20260509232003 | 12 | 134 | 3.2 | 8.0 | 0.00 | 0.66 | 0.66 | 88 | 1009.3 |
| 20260509231503 | 12 | 151 | 3.2 | 8.0 | 0.00 | 0.66 | 0.66 | 87 | 1009.4 |
| 20260509231003 | 12 | 159 | 3.2 | 8.0 | 0.00 | 0.66 | 0.66 | 87 | 1009.3 |
| 20260509230503 | 12 | 192 | 1.6 | 8.0 | 0.00 | 0.66 | 0.66 | 86 | 1009.4 |
| 20260509230003 | 12 | 154 | 3.2 | 8.0 | 0.00 | 0.66 | 0.66 | 86 | 1009.2 |
| 20260509225503 | 13 | 152 | 3.2 | 4.8 | 0.00 | 0.66 | 0.66 | 86 | 1009.3 |
| 20260509224503 | 13 | 158 | 1.6 | 4.8 | 0.00 | 0.66 | 0.66 | 85 | 1009.4 |
| 20260509224003 | 13 | 212 | 0.0 | 0.0 | 0.00 | 0.66 | 0.66 | 85 | 1009.5 |
| 20260509223503 | 13 | 236 | 0.0 | 4.8 | 0.00 | 0.66 | 0.66 | 86 | 1009.5 |
| 20260509223004 | 13 | 135 | 1.6 | 3.2 | 0.00 | 0.66 | 0.66 | 86 | 1009.6 |
| 20260509222502 | 13 | 168 | 0.0 | 4.8 | 0.00 | 0.66 | 0.66 | 86 | 1009.7 |
| 20260509222002 | 13 | 298 | 1.6 | 4.8 | 0.00 | 0.66 | 0.66 | 86 | 1009.8 |
| 20260509221503 | 13 | 292 | 0.0 | 3.2 | 0.00 | 0.66 | 0.66 | 88 | 1009.7 |
| 20260509221003 | 13 | 175 | 0.0 | 4.8 | 0.00 | 0.66 | 0.66 | 89 | 1009.7 |
| 20260509220503 | 12 | 169 | 0.0 | 4.8 | 0.00 | 0.66 | 0.66 | 90 | 1009.7 |
| 20260509220003 | 12 | 281 | 1.6 | 3.2 | 0.00 | 0.66 | 0.66 | 90 | 1009.7 |
| 20260509215503 | 12 | 264 | 0.0 | 0.0 | 0.00 | 0.66 | 0.66 | 91 | 1009.7 |
| 20260509215003 | 12 | 263 | 0.0 | 0.0 | 0.00 | 0.66 | 0.66 | 90 | 1009.8 |
| 20260509214503 | 11 | 265 | 0.0 | 0.0 | 0.00 | 0.66 | 0.66 | 90 | 1009.8 |
| 20260509214003 | 11 | 307 | 1.6 | 4.8 | 0.00 | 0.66 | 0.66 | 90 | 1009.8 |
| 20260509213503 | 11 | 206 | 0.0 | 0.0 | 0.00 | 0.66 | 0.66 | 90 | 1009.9 |
| 20260509213002 | 11 | 301 | 0.0 | 3.2 | 0.00 | 0.66 | 0.66 | 90 | 1009.9 |
| 20260509212503 | 11 | 300 | 0.0 | 4.8 | 0.00 | 0.66 | 0.66 | 90 | 1009.9 |
| 20260509212003 | 11 | 314 | 1.6 | 4.8 | 0.03 | 0.66 | 0.66 | 90 | 1009.9 |
| 20260509211003 | 11 | 294 | 0.0 | 3.2 | 0.05 | 0.66 | 0.66 | 90 | 1009.9 |
| 20260509210503 | 11 | 294 | 3.2 | 4.8 | 0.05 | 0.66 | 0.66 | 90 | 1009.8 |
| 20260509210003 | 11 | 184 | 0.0 | 4.8 | 0.08 | 0.66 | 0.66 | 91 | 1009.9 |
| 20260509205003 | 11 | 209 | 0.0 | 3.2 | 0.10 | 0.66 | 0.66 | 90 | 1009.8 |
| 20260509204503 | 11 | 247 | 0.0 | 0.0 | 0.10 | 0.66 | 0.66 | 90 | 1009.9 |
| 20260509204003 | 11 | 270 | 0.0 | 4.8 | 0.13 | 0.66 | 0.66 | 90 | 1009.9 |
| 20260509203003 | 11 | 305 | 0.0 | 3.2 | 0.15 | 0.71 | 0.66 | 91 | 1010.0 |
| 20260509202503 | 11 | 244 | 0.0 | 4.8 | 0.18 | 0.71 | 0.66 | 91 | 1010.1 |
| 20260509202003 | 11 | 267 | 0.0 | 0.0 | 0.15 | 0.71 | 0.64 | 90 | 1010.1 |
| 20260509201503 | 11 | 276 | 0.0 | 4.8 | 0.18 | 0.71 | 0.64 | 90 | 1010.2 |
| 20260509200503 | 11 | 349 | 1.6 | 11.3 | 0.18 | 0.69 | 0.61 | 90 | 1010.3 |
| 20260509200003 | 11 | 313 | 1.6 | 4.8 | 0.18 | 0.66 | 0.58 | 90 | 1010.5 |
| 20260509195503 | 11 | 297 | 3.2 | 11.3 | 0.20 | 0.66 | 0.58 | 90 | 1010.6 |
| 20260509194503 | 11 | 298 | 4.8 | 14.5 | 0.20 | 0.64 | 0.56 | 90 | 1010.9 |
| 20260509194003 | 11 | 304 | 1.6 | 8.0 | 0.20 | 0.61 | 0.53 | 90 | 1010.9 |
| 20260509193503 | 11 | 256 | 3.2 | 9.7 | 0.20 | 0.61 | 0.53 | 90 | 1010.9 |
| 20260509193003 | 11 | 324 | 1.6 | 9.7 | 0.20 | 0.58 | 0.51 | 90 | 1011.1 |
| 20260509192503 | 11 | 227 | 1.6 | 4.8 | 0.18 | 0.56 | 0.48 | 90 | 1011.0 |
| 20260509192004 | 11 | 286 | 3.2 | 4.8 | 0.18 | 0.56 | 0.48 | 90 | 1010.9 |
| 20260509191503 | 11 | 281 | 3.2 | 14.5 | 0.20 | 0.53 | 0.46 | 90 | 1011.0 |
| 20260509191003 | 11 | 282 | 0.0 | 4.8 | 0.23 | 0.53 | 0.46 | 90 | 1011.0 |
| 20260509190003 | 11 | 286 | 1.6 | 4.8 | 0.25 | 0.48 | 0.41 | 90 | 1011.2 |
| 20260509185003 | 11 | 288 | 0.0 | 4.8 | 0.25 | 0.43 | 0.36 | 90 | 1011.2 |
| 20260509184503 | 11 | 287 | 0.0 | 4.8 | 0.28 | 0.43 | 0.36 | 90 | 1011.1 |
| 20260509184003 | 11 | 296 | 0.0 | 3.2 | 0.25 | 0.41 | 0.33 | 89 | 1011.1 |
| 20260509183503 | 11 | 291 | 3.2 | 4.8 | 0.28 | 0.41 | 0.33 | 89 | 1011.1 |
| 20260509183003 | 11 | 269 | 0.0 | 4.8 | 0.25 | 0.38 | 0.30 | 88 | 1011.1 |
| 20260509182503 | 11 | 294 | 0.0 | 0.0 | 0.25 | 0.38 | 0.30 | 89 | 1010.9 |
| 20260509182003 | 11 | 205 | 0.0 | 1.6 | 0.25 | 0.38 | 0.30 | 89 | 1010.9 |
| 20260509181003 | 11 | 313 | 1.6 | 9.7 | 0.18 | 0.30 | 0.23 | 88 | 1011.5 |
| 20260509180502 | 11 | 239 | 3.2 | 9.7 | 0.13 | 0.25 | 0.18 | 87 | 1011.7 |
| 20260509180004 | 12 | 253 | 0.0 | 4.8 | 0.10 | 0.23 | 0.15 | 87 | 1011.7 |
| 20260509175506 | 12 | 264 | 4.8 | 8.0 | 0.05 | 0.18 | 0.10 | 86 | 1011.6 |
| 20260509175003 | 12 | 294 | 3.2 | 8.0 | 0.05 | 0.18 | 0.10 | 86 | 1011.5 |
| 20260509174503 | 12 | 250 | 3.2 | 12.9 | 0.03 | 0.15 | 0.08 | 86 | 1011.5 |
| 20260509174004 | 12 | 264 | 3.2 | 9.7 | 0.03 | 0.15 | 0.08 | 85 | 1011.5 |
| 20260509173503 | 12 | 239 | 1.6 | 8.0 | 0.00 | 0.13 | 0.05 | 85 | 1011.4 |
| 20260509173004 | 12 | 323 | 3.2 | 11.3 | 0.03 | 0.13 | 0.05 | 84 | 1011.3 |
| 20260509172503 | 12 | 267 | 8.0 | 16.1 | 0.03 | 0.13 | 0.05 | 85 | 1011.3 |
| 20260509172004 | 12 | 339 | 4.8 | 9.7 | 0.03 | 0.13 | 0.05 | 85 | 1011.4 |
| 20260509171503 | 12 | 299 | 4.8 | 11.3 | 0.03 | 0.13 | 0.05 | 84 | 1011.4 |
| 20260509171003 | 12 | 333 | 4.8 | 11.3 | 0.03 | 0.13 | 0.05 | 84 | 1011.4 |
| 20260509170503 | 12 | 190 | 3.2 | 12.9 | 0.03 | 0.13 | 0.05 | 84 | 1011.3 |
| 20260509165502 | 12 | 206 | 6.4 | 14.5 | 0.03 | 0.13 | 0.05 | 82 | 1011.3 |
| 20260509165003 | 12 | 230 | 8.0 | 16.1 | 0.03 | 0.13 | 0.05 | 83 | 1011.4 |
| 20260509164003 | 12 | 244 | 4.8 | 12.9 | 0.03 | 0.13 | 0.05 | 84 | 1011.3 |
| 20260509163504 | 12 | 287 | 4.8 | 16.1 | 0.03 | 0.13 | 0.05 | 84 | 1011.2 |
| 20260509163003 | 12 | 299 | 3.2 | 9.7 | 0.00 | 0.10 | 0.03 | 84 | 1011.3 |
| 20260509162503 | 12 | 279 | 3.2 | 9.7 | 0.00 | 0.10 | 0.03 | 83 | 1011.2 |
| 20260509161503 | 12 | 213 | 3.2 | 8.0 | 0.00 | 0.10 | 0.03 | 85 | 1011.1 |
| 20260509161003 | 12 | 150 | 1.6 | 9.7 | 0.00 | 0.10 | 0.03 | 85 | 1011.1 |
| 20260509160504 | 12 | 263 | 0.0 | 4.8 | 0.00 | 0.10 | 0.03 | 85 | 1011.2 |
| 20260509155002 | 12 | 173 | 0.0 | 0.0 | 0.03 | 0.10 | 0.03 | 86 | 1011.5 |
| 20260509154503 | 12 | 298 | 1.6 | 4.8 | 0.03 | 0.10 | 0.03 | 86 | 1011.5 |
| 20260509154003 | 12 | 299 | 3.2 | 4.8 | 0.03 | 0.10 | 0.03 | 85 | 1011.5 |
| 20260509153502 | 12 | 256 | 1.6 | 4.8 | 0.03 | 0.10 | 0.03 | 85 | 1011.5 |
| 20260509153003 | 12 | 302 | 1.6 | 4.8 | 0.03 | 0.10 | 0.03 | 85 | 1011.5 |
| 20260509152503 | 12 | 295 | 4.8 | 8.0 | 0.03 | 0.10 | 0.03 | 85 | 1011.5 |
| 20260509151503 | 12 | 293 | 0.0 | 3.2 | 0.03 | 0.10 | 0.03 | 85 | 1011.7 |
| 20260509151003 | 12 | 302 | 1.6 | 8.0 | 0.03 | 0.10 | 0.03 | 84 | 1011.9 |
| 20260509150503 | 12 | 212 | 0.0 | 8.0 | 0.03 | 0.10 | 0.03 | 84 | 1011.9 |
| 20260509150003 | 12 | 295 | 1.6 | 4.8 | 0.03 | 0.10 | 0.03 | 84 | 1011.8 |
| 20260509145504 | 12 | 217 | 1.6 | 4.8 | 0.00 | 0.08 | 0.00 | 83 | 1011.8 |
| 20260509145003 | 12 | 212 | 3.2 | 4.8 | 0.00 | 0.08 | 0.00 | 82 | 1011.8 |
| 20260509144003 | 12 | 223 | 3.2 | 14.5 | 0.00 | 0.08 | 0.00 | 81 | 1011.8 |
| 20260509143504 | 12 | 289 | 3.2 | 12.9 | 0.00 | 0.08 | 0.00 | 80 | 1011.7 |
| 20260509143003 | 12 | 315 | 3.2 | 12.9 | 0.00 | 0.08 | 0.00 | 80 | 1011.5 |
| 20260509142503 | 12 | 273 | 3.2 | 9.7 | 0.00 | 0.08 | 0.00 | 80 | 1011.3 |
| 20260509142003 | 12 | 183 | 3.2 | 9.7 | 0.00 | 0.08 | 0.00 | 80 | 1011.3 |
| 20260509141505 | 12 | 210 | 4.8 | 8.0 | 0.00 | 0.08 | 0.00 | 80 | 1011.3 |
| 20260509141003 | 12 | 175 | 1.6 | 8.0 | 0.00 | 0.08 | 0.00 | 81 | 1011.3 |
| 20260509140503 | 12 | 195 | 1.6 | 4.8 | 0.00 | 0.08 | 0.00 | 82 | 1011.2 |
| 20260509140003 | 12 | 247 | 0.0 | 4.8 | 0.00 | 0.08 | 0.00 | 82 | 1011.1 |
| 20260509135503 | 11 | 289 | 1.6 | 4.8 | 0.00 | 0.08 | 0.00 | 82 | 1011.3 |
| 20260509135003 | 11 | 100 | 0.0 | 3.2 | 0.00 | 0.08 | 0.00 | 82 | 1011.4 |
| 20260509134503 | 11 | 132 | 1.6 | 4.8 | 0.00 | 0.08 | 0.00 | 82 | 1011.4 |
| 20260509134003 | 11 | 152 | 6.4 | 11.3 | 0.00 | 0.08 | 0.00 | 81 | 1011.4 |
| 20260509133504 | 11 | 165 | 3.2 | 11.3 | 0.00 | 0.08 | 0.00 | 81 | 1011.5 |
| 20260509133004 | 11 | 178 | 3.2 | 9.7 | 0.00 | 0.08 | 0.00 | 81 | 1011.5 |
| 20260509132503 | 11 | 151 | 6.4 | 12.9 | 0.00 | 0.08 | 0.00 | 80 | 1011.6 |
| 20260509132003 | 11 | 144 | 3.2 | 9.7 | 0.00 | 0.08 | 0.00 | 80 | 1011.6 |
| 20260509131503 | 11 | 182 | 4.8 | 9.7 | 0.00 | 0.08 | 0.00 | 80 | 1011.6 |